Location: Newark
(49.2842°N, 3.4494°E)
Time: 18:55:50
(UTC+00:00)

N. Korean satellite - Visible Passes

Search period start: 15 October 2019 00:00
Search period end: 25 October 2019 00:00
Orbit: 455 x 508 km, 97.2° (Epoch: 14 October)

Date Brightness Start Highest point End Pass type
(mag) Time Alt. Az. Time Alt. Az. Time Alt. Az.
15 Oct 8.4 05:21:19 10° NNE 05:24:40 37° E 05:28:02 10° SSE visible
15 Oct 9.4 17:34:41 10° SSW 17:37:29 23° W 17:40:17 10° NW visible
16 Oct 9.7 04:56:32 10° NE 04:59:14 20° E 05:01:57 10° SE visible
17 Oct 10.4 04:32:45 10° ENE 04:33:42 11° E 04:34:41 10° ESE visible
18 Oct 10.0 17:53:04 10° SW 17:55:07 15° W 17:57:11 10° NW visible
19 Oct 8.8 05:13:36 10° NNE 05:16:51 31° E 05:20:07 10° SSE visible
19 Oct 9.0 17:26:37 10° SSW 17:29:37 28° W 17:32:39 10° NW visible
20 Oct 9.9 04:48:57 10° NE 04:51:23 17° E 04:53:50 10° SE visible
22 Oct 7.7 05:30:52 10° NNE 05:34:24 50° E 05:37:58 10° S visible
22 Oct 9.8 17:44:45 10° SW 17:47:12 18° W 17:49:41 10° NW visible
23 Oct 9.2 05:05:53 10° NE 05:09:00 26° E 05:12:07 10° SSE visible
23 Oct 8.5 17:18:33 10° SSW 17:21:43 34° W 17:24:57 10° NNW visible
24 Oct 10.1 04:41:25 10° NE 04:43:29 14° E 04:45:34 10° SE visible
